Regional Weather Roundup
Issued by NWS Wakefield, VA

Home | Current Version | Previous Version | Graphics & Text | Print | Product List | Glossary On
Versions: 1 2 3 4 5 6 7 8 9 10 11 12 13 14 15 16 17 18 19 20 21 22 23 24 25 26 27 28 29 30 31 32 33 34 35 36 37 38 39 40 41 42 43 44 45 46 47 48 49 50
000
ASUS41 KAKQ 061415
RWRAKQ

REGIONAL WEATHER ROUNDUP
NATIONAL WEATHER SERVICE WAKEFIELD VA
900 AM EST SAT FEB 06 2016

Note: "fair" indicates few or no clouds below 12,000 feet with no
significant weather and/or obstructions to visibility. * = Denotes
station may not report precipitation (e.g., rain,snow,etc.),
thunder or fog.

VAZ042-051-052>054-056-061500-
NORTHERN VIRGINIA

CITY           SKY/WX    TMP DP  RH WIND       PRES   REMARKS
WASH NATIONAL  PTSUNNY   33  24  69 S3        30.47S
DULLES         PTSUNNY   29  22  75 CALM      30.45S
FORT BELVOIR   FAIR      29  22  75 CALM      30.47S
QUANTICO       FAIR      32  23  69 W3        30.50R
FREDERICKSBRG* FAIR      29  25  87 CALM      30.48R
STAFFORD*      FAIR      30  23  75 CALM      30.51S
WARRENTON      FAIR      29  26  92 CALM      30.45F
CULPEPER*      FAIR      26  22  85 CALM      30.47S
MANASSAS*      SUNNY     27  27 100 S3        30.47S
LEESBURG*      FAIR      34  27  75 SW5       30.45S
WINCHESTER     FAIR      30  23  74 S5        30.41S
FRONT ROYAL*   FAIR      32  21  64 S3        30.40F
LURAY*         FAIR      28  23  80 CALM      30.41S
$$

VAZ048-049-060>072-079>083-061500-
CENTRAL AND SOUTH CENTRAL VIRGINIA

CITY           SKY/WX    TMP DP  RH WIND       PRES   REMARKS
RICHMOND       CLOUDY    31  27  85 CALM      30.48R
CHESTERFIELD*  FAIR      28  14  54 CALM      30.49R
PETERSBURG*    FAIR      32  26  78 CALM      30.49R
HANOVER        FAIR      30  24  78 CALM      30.49R
TAPPAHANNOCK*  FAIR      30  29  94 CALM      30.48S
QUINTON*       FAIR      29  24  81 CALM      30.47S
CHARLOTTSVILLE FAIR      30  22  72 S3        30.44R
GORDONSVILLE*  FAIR      31  25  76 SW5       30.46R
ORANGE*        FAIR      32  23  69 CALM      30.47R
LOUISA*        FAIR      32  23  69 CALM      30.44R
BUMPASS*       FAIR      26  21  80 CALM      30.47R
FARMVILLE*     FAIR      28  26  92 CALM      30.47R
CREWE*         FAIR      27  27 100 CALM      30.46S
FORT PICKETT*  FAIR      30  24  77 MISG      30.46R
CHASE CITY*    FAIR      33  22  66 CALM      30.46S
CLARKSVILLE*   FAIR      32  32 100 CALM      30.45F
SOUTH HILL*    FAIR      31  24  74 CALM      30.52S
LAWRENCEVILLE* FAIR      31  27  84 CALM      30.47R
EMPORIA*       FAIR      32  28  86 CALM      30.49S
$$

VAZ088>098-061500-
SOUTHEAST VIRGINIA

CITY           SKY/WX    TMP DP  RH WIND       PRES   REMARKS
NORFOLK        FAIR      39  25  57 N5        30.47R
VIRGINIA BEACH PTSUNNY   40  31  70 CALM      30.47R
NORFOLK NAVAL  PTSUNNY   39  24  55 NE3       30.49R
WEST POINT*    FAIR      31  29  94 CALM      30.50S
SALUDA*        FAIR      34  30  86 CALM      30.47F
NEWPORT NEWS   FAIR      33  30  88 CALM      30.48R
LANGLEY AFB    FAIR      35  27  74 CALM      30.47R
FORT EUSTIS    FAIR      35  26  68 CALM      30.46R
WILLIAMSBURG*  FAIR      36  32  87 CALM      30.49S
HR EXEC AP*    FAIR      34  30  86 CALM      30.50S
FRANKLIN*      FAIR      31  29  92 CALM      30.49S
US460-WAKEFLD  FAIR      33  29  85 CALM      30.48S
$$

VAZ020-022-025-037-045-061500-
WEST CENTRAL AND SOUTHWEST VIRGINIA

CITY           SKY/WX    TMP DP  RH WIND       PRES   REMARKS
STAUNTON*      FAIR      31  24  74 CALM      30.42S
WAYNESBORO*    FAIR      28  19  68 CALM      30.40R
HOT SPRINGS VA FAIR      26  13  57 CALM      30.26R
LYNCHBURG      FAIR      28  22  78 CALM      30.45R
DANVILLE       FAIR      31  24  75 CALM      30.46R
SOUTH BOSTON*  FAIR      29  27  93 CALM      30.47R
MARTINSVILLE   FAIR      24  19  83 CALM      30.47R
ROANOKE        PTSUNNY   29  19  66 CALM      30.45R
BLACKSBURG     FAIR      26  21  83 CALM      30.41R
DUBLIN*        FAIR      25  22  88 CALM      30.39R
MARION*        FAIR      26  19  77 CALM      30.37F
HILLSVILLE*    FAIR      24  17  73 SW5       30.33S
RICHLANDS*     FAIR      31  12  46 CALM      30.33S
WISE*          FAIR      32  16  51 CALM      30.34R
ABINGDON*      FAIR      28  18  65 E5        30.37R
$$

MDZ021>025-VAZ099-100-061500-
SOUTHERN MARYLAND AND THE DELMARVA PENINSULA

CITY           SKY/WX    TMP DP  RH WIND       PRES   REMARKS
PATUXENT RIVER PTSUNNY   32  25  75 SW3       30.48R
BAY BRIDGE APT   N/A     34  27  75 CALM      30.47S
LEONARDTOWN    PTSUNNY   32  21  64 CALM      30.49S
DOVER          MOSUNNY   31  24  76 S1        30.45S
GEORGETOWN     MOSUNNY   31  26  82 CALM      30.47S
EASTON         PTSUNNY   32  28  86 CALM      30.50R
CAMBRIDGE      CLOUDY    32  30  93 CALM      30.46F
SALISBURY      CLOUDY    31  27  85 CALM      30.47S
OCEAN CITY     CLOUDY    34  25  69 CALM      30.48R
WALLOPS ISLAND FAIR      36  26  67 CALM      30.48S
ACCOMACK*      FAIR      34  25  69 CALM      30.47S
$$

NCZ012>017-030>032-061500-
NORTH CENTRAL AND EASTERN NORTH CAROLINA

CITY           SKY/WX    TMP DP  RH WIND       PRES   REMARKS
ROANOKE RAPIDS FAIR      30  30 100 CALM      30.47S
RALEIGH        PTSUNNY   34  22  61 CALM      30.46R
ELIZABETH CITY PTSUNNY   39  31  72 N6        30.47F
AHOSKIE*       CLOUDY    29  28  93 CALM      30.48S
EDENTON*       PTSUNNY   37  31  78 NE3       30.48S
CURRITUCK*     PTSUNNY   35  30  83 CALM      30.48S
KILL DEVIL HLS PTSUNNY   43  28  56 N7        30.43F
MANTEO         PTSUNNY   42  30  63 N10       30.45F
CAPE HATTERAS  MOSUNNY   45  33  63 VRB7      30.43R
TARBORO*       FAIR      32  31  96 CALM      30.49S
GOLDSBORO      MOSUNNY   37  32  81 NE7       30.44S
WASHINGTON     MOSUNNY   35  29  80 CALM      30.47S
GREENVILLE     PTSUNNY   34  32  93 N3        30.47S
NEW BERN       SUNNY     39  29  67 NE13      30.45F
WILMINGTON     CLOUDY    38  32  79 N8        30.43R
$$

VAZ048-061500-
ELSEWHERE

CITY           SKY/WX    TMP DP  RH WIND       PRES   REMARKS
HARRISBURG PA  CLOUDY    30  19  63 E6        30.42S
BALTIMORE      PTSUNNY   30  23  75 CALM      30.45S
ANNAPOLIS      CLOUDY    33  26  75 CALM      30.47S
ANDREWS AFB    FAIR      32  24  71 S2        30.45R
PHILADELPHIA   CLOUDY    32  23  69 SW3       30.46R
HENDERSON NC   MOSUNNY   34  20  57 SE3       30.45S
GREENSBORO     PTSUNNY   32  19  58 NE3       30.42R
ROCKY MOUNT    MOSUNNY   32  29  88 CALM      30.47F
$$

VAZ100-061500-
MARINE

STATION/POSITION TIME  TEMP    WIND        PRES    WAVE   SWELL
                       AIR SEA DIR/SP/G            HT/PER HT/PER
                 (UTC) (F)     (DEG/KT/KT) (MB)    (FT/S) (FT/S)
BRANDYWINE LGT   1300   35     280/  1/  3 1031.6R
CAPE MAY NJ      1300   32 42  110/  2/  3 1031.5R
LEWES DE         1300   32 42  250/  2/  3 1031.7R
15NM E FENWICK I 1350   38 45              1032.0R   4/10
OCEAN-CITY-INLET 1300   32 41  350/  3/  4 1031.0R
WACHAPREAGUE VA  1300   31 44  330/  2/  3 1031.7R
THOMAS POINT MD  1300   32 38  260/  4/  5 1032.5R
GOOSES REEF MD   1400   36 39  270/  4/  4 1032.8R   0
COVE POINT MD    1300   35     240/  1/  3 1032.3R
SOLOMONS ISLAND  1300   31 40  360/  1/  2   N/A
BISHOPS HEAD MD  1300   36 38   40/  6/  7 1030.8R
POTOMAC MD       1400   36 40  340/  2/  2 1031.1R   0
CAMBRIDGE MD     1300   32 40   CALM  /  2 1030.9R
LEWISETTA VA     1300   31 42  300/  2/  2 1031.6R
RAPPAHANNOCK LGT 1300           40/  8/  8 1031.9R
STINGRAY PT      1400   38 42   80/  4/  6 1032.0R   1
YORK RVR RNG VA  1300   35     330/  5/  6 1031.2R
YORKTOWN VA      1300   35 44  340/  6/  6 1031.6R
JAMESTOWN VA     1400   36 43   CALM  /  2   N/A     0
DOMINION TERM VA 1300   35      20/  3/  5 1031.9R
KIPTOPEKE VA     1300      43   50/  3/  5   N/A
CHES BAY BRIDGE  1300   38 43  360/  6/  7 1031.4R
CAPE HENRY VA    1300   39      40/  5/  7   N/A
CHESAPEAKE LGHT  1300   40      30/  6/  7 1032.0R
WILLOUBY STN VA  1300   36     360/  5/  5 1027.5S
CAPE HENRY BUOY  1328      46                N/A     4/11   2/11
1ST LANDING BUOY 1400      44                N/A     2/ 4
CAPE CHARLES BUO 1326      45                N/A     3/11   3/11
OFFSHORE WE BUOY 1321      49                N/A     4/10   5/10
64NM E OF VA BCH 1350   43 54   10/  8/ 12 1031.2R   6/10   7/10
DUCK PIER NC     1300   41 45   30/  5/  8 1031.1R
44100 DUCK FRF   1324      46                N/A     5/10   2/11
44056 DUCK FRF   1311      44                N/A     4/10   2/11
OREGON INLET NC  1300   42 45  340/  8/ 10 1030.9R
HATTERAS NC      1300   43 53  340/ 16/ 20 1030.0R
DIAMOND SHLS NC  1350   47 73  360/ 17/ 23 1029.6R   6/11   5/11
$$



USA.gov is the U.S. government's official web portal to all federal, state and local government web resources and services.